EW1857 Weather Reports


time (UTC)temp
F
wind
direction
speed
knots
gust
knots
rain 1hr
in
rain 24hr
in
rain mn
in
humidity
%
barometer
mb
20260506175418 70 0.0 0.0 0.00 0.00 0.00 50 999.1
20260506174421 70 0.0 0.0 0.00 0.00 0.00 49 999.2
20260506173922 71 0.0 0.0 0.00 0.00 0.00 49 999.2
20260506173426 71 0.0 0.0 0.00 0.00 0.00 48 999.1
20260506172418 72 0.0 0.0 0.00 0.00 0.00 47 999.2
20260506171416 72 0.0 0.0 0.00 0.00 0.00 47 999.2
20260506170416 73 0.0 0.0 0.00 0.00 0.00 46 999.2
20260506165518 73 0.0 0.0 0.00 0.00 0.00 46 999.2
20260506164524 73 0.0 0.0 0.00 0.00 0.00 46 999.3
20260506163517 73 0.0 0.0 0.00 0.00 0.00 45 999.3
20260506162516 73 0.0 0.0 0.00 0.00 0.00 44 999.5
20260506161517 74 0.0 0.0 0.00 0.00 0.00 43 999.5
20260506160523 74 0.0 0.0 0.00 0.00 0.00 43 999.8
20260506155417 74 0.0 0.0 0.00 0.00 0.00 42 999.8
20260506154417 74 0.0 0.0 0.00 0.00 0.00 43 1000.2
20260506153418 75 0.0 0.0 0.00 0.00 0.00 42 1000.2
20260506152925 76 0.0 0.0 0.00 0.00 0.00 42 1000.5
20260506151916 76 0.0 0.0 0.00 0.00 0.00 42 1000.5
20260506150916 76 0.0 0.0 0.00 0.00 0.00 42 1000.8
20260506145916 76 0.0 0.0 0.00 0.00 0.00 42 1000.9
20260506144918 77 0.0 0.0 0.00 0.00 0.00 43 1001.0
20260506143918 76 0.0 0.0 0.00 0.00 0.00 43 1001.0
20260506142917 76 0.0 0.0 0.00 0.00 0.00 42 1001.0
20260506141916 77 0.0 0.0 0.00 0.00 0.00 43 1001.0
20260506140916 77 0.0 0.0 0.00 0.00 0.00 43 1001.2
20260506135918 77 0.0 0.0 0.00 0.00 0.00 43 1001.2
20260506135425 77 0.0 0.0 0.00 0.00 0.00 43 1001.2
20260506134516 77 0.0 0.0 0.00 0.00 0.00 43 1001.5
20260506133521 77 0.0 0.0 0.00 0.00 0.00 43 1001.5
20260506132517 76 0.0 0.0 0.00 0.00 0.00 45 1001.8
20260506131516 76 0.0 0.0 0.00 0.00 0.00 44 1001.8
20260506130522 76 0.0 0.0 0.00 0.00 0.00 43 1001.8
20260506125418 76 0.0 0.0 0.00 0.00 0.00 41 1001.8
20260506124418 79 0.0 0.0 0.00 0.00 0.00 38 1002.1
20260506123417 78 0.0 0.0 0.00 0.00 0.00 39 1002.1
20260506122418 78 0.0 0.0 0.00 0.00 0.00 38 1002.4
20260506121417 80 0.0 0.0 0.00 0.00 0.00 36 1002.4
20260506120416 80 0.0 0.0 0.00 0.00 0.00 38 1002.5
20260506115420 80 0.0 0.0 0.00 0.00 0.00 37 1002.5
20260506114922 80 0.0 0.0 0.00 0.00 0.00 38 1002.6
20260506114426 80 0.0 0.0 0.00 0.00 0.00 37 1002.6
20260506113418 81 0.0 0.0 0.00 0.00 0.00 38 1002.7
20260506112417 80 0.0 0.0 0.00 0.00 0.00 39 1003.2
20260506111419 80 0.0 0.0 0.00 0.00 0.00 39 1003.2
20260506110419 81 0.0 0.0 0.00 0.00 0.00 37 1003.2
20260506105417 82 0.0 0.0 0.00 0.00 0.00 36 1003.2
20260506104416 82 0.0 0.0 0.00 0.00 0.00 37 1003.5
20260506103517 83 0.0 0.0 0.00 0.00 0.00 35 1003.5
20260506102516 83 0.0 0.0 0.00 0.00 0.00 35 1003.5
20260506101518 89 0.0 0.0 0.00 0.00 0.00 31 1003.7
20260506100520 89 0.0 0.0 0.00 0.00 0.00 31 1003.6
20260506095420 92 0.0 0.0 0.00 0.00 0.00 29 1003.7
20260506094926 93 0.0 0.0 0.00 0.00 0.00 28 1004.0
20260506094223 94 0.0 0.0 0.00 0.00 0.00 30 1004.1
20260506092916 94 0.0 0.0 0.00 0.00 0.00 31 1004.0
20260506091921 92 0.0 0.0 0.00 0.00 0.00 32 1003.9
20260506091423 92 0.0 0.0 0.00 0.00 0.00 33 1004.0
20260506090921 91 0.0 0.0 0.00 0.00 0.00 34 1004.1
20260506090426 89 0.0 0.0 0.00 0.00 0.00 35 1004.0
20260506085923 88 0.0 0.0 0.00 0.00 0.00 35 1004.0
20260506085422 87 0.0 0.0 0.00 0.00 0.00 36 1003.9
20260506084925 87 0.0 0.0 0.00 0.00 0.00 36 1004.1
20260506084425 86 0.0 0.0 0.00 0.00 0.00 36 1004.1
20260506083925 87 0.0 0.0 0.00 0.00 0.00 36 1004.2
20260506083424 87 0.0 0.0 0.00 0.00 0.00 36 1004.2
20260506082517 86 0.0 0.0 0.00 0.00 0.00 37 1004.0
20260506081518 85 0.0 0.0 0.00 0.00 0.00 39 1004.0
20260506080523 84 0.0 0.0 0.00 0.00 0.00 40 1004.0
20260506072916 70 0.0 0.0 0.00 0.00 0.00 58 1003.7
20260506071916 69 0.0 0.0 0.00 0.00 0.00 60 1003.7
20260506071427 68 0.0 0.0 0.00 0.00 0.00 59 1003.6
20260506070517 68 0.0 0.0 0.00 0.00 0.00 61 1003.5
20260506061917 62 0.0 0.0 0.00 0.00 0.00 67 1003.3
20260506060916 61 0.0 0.0 0.00 0.00 0.00 68 1003.6
20260506050925 57 0.0 0.0 0.00 0.00 0.00 71 1002.8
20260506050424 56 0.0 0.0 0.00 0.00 0.00 71 1002.7
20260506044418 55 0.0 0.0 0.00 0.00 0.00 71 1002.7
20260506043418 55 0.0 0.0 0.00 0.00 0.00 71 1002.7
20260506042417 55 0.0 0.0 0.00 0.00 0.00 72 1002.6
20260506041923 54 0.0 0.0 0.00 0.00 0.00 72 1002.6
20260506041423 54 0.0 0.0 0.00 0.00 0.00 72 1002.6
20260506040722 54 0.0 0.0 0.00 0.00 0.00 72 1002.2
20260506035518 54 0.0 0.0 0.00 0.00 0.00 72 1002.4
20260506034517 54 0.0 0.0 0.00 0.00 0.00 72 1002.4
20260506033516 54 0.0 0.0 0.00 0.00 0.00 72 1002.4
20260506032525 55 0.0 0.0 0.00 0.00 0.00 72 1002.0
20260506031526 55 0.0 0.0 0.00 0.00 0.00 72 1002.1
20260506030527 55 0.0 0.0 0.00 0.00 0.00 72 1002.0
20260506025420 55 0.0 0.0 0.00 0.00 0.00 71 1002.0
20260506024921 56 0.0 0.0 0.00 0.00 0.00 71 1002.1
20260506024425 56 0.0 0.0 0.00 0.00 0.00 71 1002.1
20260506023418 56 0.0 0.0 0.00 0.00 0.00 71 1002.1
20260506022922 56 0.0 0.0 0.00 0.00 0.00 71 1002.2
20260506022426 56 0.0 0.0 0.00 0.00 0.00 71 1002.3
20260506021418 56 0.0 0.0 0.00 0.00 0.00 70 1002.3
20260506020927 57 0.0 0.0 0.00 0.00 0.00 70 1002.2
20260506015625 57 0.0 0.0 0.00 0.00 0.00 69 1002.2
20260506014617 57 0.0 0.0 0.00 0.00 0.00 68 1001.6
20260506013516 58 0.0 0.0 0.00 0.00 0.00 68 1001.6
20260506012516 58 0.0 0.0 0.00 0.00 0.00 67 1001.8
20260506011525 59 0.0 0.0 0.00 0.00 0.00 67 1001.8
20260506010521 59 0.0 0.0 0.00 0.00 0.00 66 1001.7
20260506005416 59 0.0 0.0 0.00 0.00 0.00 65 1001.7
20260506004117 60 0.0 0.0 0.00 0.00 0.00 64 1001.6
20260506003125 60 0.0 0.0 0.00 0.00 0.00 62 1001.6
20260506002122 61 0.0 0.0 0.00 0.00 0.00 62 1001.6
20260506001026 61 0.0 0.0 0.00 0.00 0.00 62 1001.7
20260505235916 61 0.0 0.0 0.00 0.00 0.00 62 1001.7
20260505234919 61 0.0 0.0 0.00 0.00 0.00 61 1001.4
20260505234423 61 0.0 0.0 0.00 0.00 0.00 61 1001.4
20260505233922 61 0.0 0.0 0.00 0.00 0.00 61 1001.4
20260505233422 61 0.0 0.0 0.00 0.00 0.00 61 1001.4
20260505232922 61 0.0 0.0 0.00 0.00 0.00 61 1001.5
20260505232425 61 0.0 0.0 0.00 0.00 0.00 60 1001.5
20260505231925 61 0.0 0.0 0.00 0.00 0.00 60 1001.6
20260505231424 62 0.0 0.0 0.00 0.00 0.00 60 1001.6
20260505230923 62 0.0 0.0 0.00 0.00 0.00 60 1001.6
20260505230425 62 0.0 0.0 0.00 0.00 0.00 60 1001.6
20260505225925 62 0.0 0.0 0.00 0.00 0.00 60 1001.6
20260505224915 62 0.0 0.0 0.00 0.00 0.00 59 1001.5
20260505223919 62 0.0 0.0 0.00 0.00 0.00 59 1001.5
20260505223426 62 0.0 0.0 0.00 0.00 0.00 59 1001.5
20260505222418 62 0.0 0.0 0.00 0.00 0.00 59 1001.7
20260505221417 62 0.0 0.0 0.00 0.00 0.00 58 1001.6
20260505220419 62 0.0 0.0 0.00 0.00 0.00 58 1001.2
20260505215417 62 0.0 0.0 0.00 0.00 0.00 58 1001.2
20260505214420 62 0.0 0.0 0.00 0.00 0.00 58 1001.2
20260505213922 62 0.0 0.0 0.00 0.00 0.00 58 1001.2
20260505213426 62 0.0 0.0 0.00 0.00 0.00 57 1001.2
20260505212527 62 0.0 0.0 0.00 0.00 0.00 57 1001.3
20260505211518 62 0.0 0.0 0.00 0.00 0.00 57 1001.3
20260505210526 62 0.0 0.0 0.00 0.00 0.00 56 1001.5
20260505205418 62 0.0 0.0 0.00 0.00 0.00 54 1001.4
20260505204117 63 0.0 0.0 0.00 0.00 0.00 54 1000.9
20260505203125 63 0.0 0.0 0.00 0.00 0.00 53 1000.8
20260505202417 63 0.0 0.0 0.00 0.00 0.00 52 1000.7
20260505201416 63 0.0 0.0 0.00 0.00 0.00 52 1000.7
20260505200419 64 0.0 0.0 0.00 0.00 0.00 51 1000.9
20260505195923 64 0.0 0.0 0.00 0.00 0.00 51 1000.9
20260505195426 64 0.0 0.0 0.00 0.00 0.00 51 1000.9
20260505194926 64 0.0 0.0 0.00 0.00 0.00 51 1000.8
20260505194427 64 0.0 0.0 0.00 0.00 0.00 51 1000.8
20260505193417 64 0.0 0.0 0.00 0.00 0.00 50 1000.8
20260505192926 65 0.0 0.0 0.00 0.00 0.00 50 1000.8
20260505192425 65 0.0 0.0 0.00 0.00 0.00 50 1000.8
20260505191926 65 0.0 0.0 0.00 0.00 0.00 50 1000.8
20260505190919 65 0.0 0.0 0.00 0.00 0.00 50 1000.9
20260505190423 65 0.0 0.0 0.00 0.00 0.00 50 1000.9
20260505185927 66 0.0 0.0 0.00 0.00 0.00 49 1000.9
20260505185422 66 0.0 0.0 0.00 0.00 0.00 49 1000.9
20260505184925 66 0.0 0.0 0.00 0.00 0.00 49 1000.6
20260505183919 66 0.0 0.0 0.00 0.00 0.00 48 1000.6
20260505182917 67 0.0 0.0 0.00 0.00 0.00 47 1000.8
20260505182423 67 0.0 0.0 0.00 0.00 0.00 47 1000.8
20260505181925 67 0.0 0.0 0.00 0.00 0.00 47 1000.8
20260505181426 68 0.0 0.0 0.00 0.00 0.00 46 1000.7
20260505180416 68 0.0 0.0 0.00 0.00 0.00 45 1000.6